Home > Weather > Dublin > Past weeks

Flag for Ireland Past Weather in Dublin, Ireland — Yesterday and Last 2 Weeks

Now
64 °F

Broken clouds.


Feels Like: 64 °F
Forecast: 56 / 73 °F
Wind: 12 mph from West

Location: Dublin Airport

Current Time: Aug 29, 2016 at 9:04:12 PM

Latest Report: Aug 29, 2016 at 8:30 PM


Visibility: N/A

Pressure: 30.18 "Hg

Humidity: 78%

Dew Point: 57 °F

Location of DublinLocation

Past Weather in Dublin — Graph

°F

Dublin Temperature Yesterday

Maximum temperature yesterday: 68 °F (at 1:00 PM)
Minimum temperature yesterday: 52 °F (at 11:00 PM)
Average temperature yesterday: 61 °F

High & Low Weather Summary for the Past Weeks

 TemperatureHumidityPressure
High72 °F (Aug 29, 2:30 PM)100% (Aug 15, 3:30 AM)30.30 "Hg (Aug 15, 3:30 AM)
Low45 °F (Aug 15, 3:00 AM)43% (Aug 24, 2:30 PM)29.12 "Hg (Aug 20, 8:30 AM)
Average60 °F80%29.94 "Hg
* Reported Aug 14 8:00 PM — Aug 29 8:00 PM, Dublin, Weather by CustomWeather, © 2016

Note: Actual official high and low records may vary slightly from our data, if they occured in-between our weather recording intervals... More about our weather records

Advertising

Dublin Weather History for the Previous 24 Hours

Scroll right to see more
 ConditionsComfort  
Time TempWeatherWind HumidityBarometerVisibility
8:00 PM
Mon, Aug 29
66 °FPartly sunny.13 mph73%30.15 "HgN/A
7:30 PM68 °FPartly sunny.14 mph64%30.15 "HgN/A
7:00 PM68 °FPartly sunny.14 mph64%30.15 "HgN/A
6:30 PM68 °FBroken clouds.15 mph60%30.15 "HgN/A
6:00 PM70 °FPartly sunny.13 mph57%30.15 "HgN/A
5:30 PM72 °FPartly sunny.14 mph53%30.15 "HgN/A
5:00 PM70 °FPartly sunny.16 mph53%30.15 "HgN/A
4:30 PM70 °FPartly sunny.15 mph53%30.15 "HgN/A
4:00 PM72 °FPartly sunny.14 mph50%30.15 "HgN/A
3:30 PM72 °FPartly sunny.12 mph44%30.15 "HgN/A
3:00 PM70 °FScattered clouds.5 mph50%30.18 "HgN/A
2:30 PM72 °FScattered clouds.8 mph47%30.18 "HgN/A
2:00 PM70 °FScattered clouds.10 mph50%30.18 "HgN/A
1:30 PM70 °FScattered clouds.10 mph50%30.18 "HgN/A
1:00 PM68 °FPassing clouds.10 mph49%30.18 "HgN/A
12:30 PM68 °FPassing clouds.8 mph53%30.18 "HgN/A
12:00 PM66 °FScattered clouds.7 mph56%30.18 "HgN/A
11:30 AM64 °FScattered clouds.6 mph64%30.18 "HgN/A
11:00 AM64 °FPartly sunny.6 mph60%30.18 "HgN/A
10:30 AM61 °FPartly sunny.6 mph68%30.18 "HgN/A
10:00 AM61 °FScattered clouds.5 mph68%30.18 "HgN/A
9:30 AM59 °FScattered clouds.7 mph77%30.18 "HgN/A
9:00 AM55 °FPassing clouds.6 mph88%30.18 "HgN/A
8:30 AM54 °FPassing clouds.6 mph88%30.18 "HgN/A
8:00 AM52 °FScattered clouds.7 mph94%30.18 "HgN/A
7:30 AM46 °FScattered clouds.5 mph100%30.15 "HgN/A
7:00 AM46 °FPassing clouds.7 mph93%30.15 "HgN/A
6:30 AM46 °FPassing clouds.7 mph100%30.15 "HgN/A
6:00 AM45 °FPassing clouds.5 mph93%30.15 "HgN/A
5:30 AM46 °FPassing clouds.6 mph93%30.15 "HgN/A
5:00 AM48 °FPassing clouds.6 mph87%30.15 "HgN/A
4:30 AM48 °FPassing clouds.6 mph87%30.15 "HgN/A
4:00 AM50 °FPassing clouds.8 mph88%30.15 "HgN/A
3:30 AM50 °FPassing clouds.7 mph88%30.15 "HgN/A
3:00 AM50 °FPassing clouds.8 mph88%30.15 "HgN/A
2:30 AM48 °FPassing clouds.7 mph94%30.12 "HgN/A
2:00 AM48 °FPassing clouds.7 mph94%30.12 "HgN/A
1:30 AM50 °FPassing clouds.8 mph88%30.12 "HgN/A
1:00 AM50 °FPassing clouds.8 mph88%30.12 "HgN/A
12:30 AM50 °FPassing clouds.6 mph88%30.12 "HgN/A
12:00 AM50 °FPassing clouds.8 mph88%30.12 "HgN/A
11:30 PM
Sun, Aug 28
52 °FPassing clouds.7 mph88%30.12 "HgN/A
11:00 PM52 °FPassing clouds.6 mph88%30.09 "HgN/A
10:30 PM57 °FPartly cloudy.8 mph77%30.09 "HgN/A
10:00 PM59 °FPartly cloudy.6 mph82%30.09 "HgN/A
9:30 PM54 °FPassing clouds.2 mph88%30.09 "HgN/A
9:00 PM57 °FScattered clouds.2 mph77%30.07 "HgN/A
Weather by CustomWeather, © 2016

See weather overviewHow to use our weather pages